Location: Croisilles
(50.1998°N, 2.8793°E)
Time: 13:26:10
(UTC+00:00)

Cosmos 1092 Rocket - Pass Details

Date: 21 January 2021
Orbit: 954 x 995 km, 83.0° (Epoch: 26 February)

Event Time Altitude Azimuth Distance (km) Brightness Sun altitude
Rises 19:02:54 0° 194° (SSW) 3,653 7.2 -25.0°
Reaches altitude 10° 19:05:26 10° 197° (SSW) 2,705 6.5 -25.4°
Maximum altitude 19:11:36 72° 281° (W) 1,013 4.1 -26.4°
Drops below altitude 10° 19:17:47 10° 6° (N) 2,701 6.3 -27.4°
Sets 19:20:18 0° 9° (N) 3,648 6.9 -27.8°
